This is the latest recevied weather packets stored in our database for station/object WP3OF-5. If no packets are shown the sender has not sent any weather packets the latest 10 day(s).
| Time | Temp. | Humidity | Pressure | Rain* | Wind** | Luminosity | Snow |
|---|---|---|---|---|---|---|---|
| 1777895935 | 23.33° C | 90% | 1017.2 hPa | 0 mm | - | - | - |
| 1777895633 | 22.78° C | 91% | 1017.2 hPa | 0 mm | - | - | - |
| 1777894725 | 22.22° C | 94% | 1017.2 hPa | 0 mm | - | - | - |
| 1777894421 | 21.67° C | 94% | 1017.2 hPa | 0 mm | - | - | - |
| 1777894120 | 21.67° C | 96% | 1017.2 hPa | 0 mm | - | - | - |
| 1777893816 | 21.67° C | 97% | 1017.3 hPa | 0 mm | - | - | - |
| 1777893512 | 21.11° C | 97% | 1017.4 hPa | 0 mm | - | - | - |
| 1777893209 | 20.56° C | 98% | 1017.2 hPa | 0 mm | - | - | - |
| 1777892906 | 20.56° C | 98% | 1017.3 hPa | 0 mm | - | - | - |
| 1777892602 | 20.56° C | 98% | 1017.2 hPa | 0 mm | - | - | - |
| 1777892298 | 20° C | 98% | 1017.1 hPa | 0 mm | - | - | - |
| 1777889867 | 19.44° C | 98% | 1016.6 hPa | 0 mm | - | - | - |
| 1777889565 | 18.89° C | 97% | 1016.8 hPa | 0 mm | - | - | - |
| 1777889262 | 18.89° C | 97% | 1016.7 hPa | 0 mm | - | - | - |
| 1777888960 | 19.44° C | 97% | 1016.8 hPa | 0 mm | - | - | - |
| 1777887443 | 19.44° C | 97% | 1016.7 hPa | 0 mm | - | - | - |
| 1777887138 | 19.44° C | 97% | 1016.6 hPa | 0 mm | - | - | - |
| 1777886835 | 18.89° C | 97% | 1016.5 hPa | 0 mm | - | - | - |
| 1777886531 | 19.44° C | 97% | 1016.6 hPa | 0 mm | - | - | - |
| 1777886229 | 19.44° C | 97% | 1016.6 hPa | 0 mm | - | - | - |
| 1777885926 | 19.44° C | 97% | 1016.7 hPa | 0 mm | - | - | - |
| 1777885625 | 19.44° C | 97% | 1016.4 hPa | 0 mm | - | - | - |
| 1777885323 | 19.44° C | 97% | 1016.5 hPa | 0 mm | - | - | - |
| 1777885021 | 19.44° C | 97% | 1016.6 hPa | 0 mm | - | - | - |
| 1777884716 | 19.44° C | 97% | 1016.3 hPa | 0 mm | - | - | - |
* Rain latest hour (hover to see other rain measurements)
** Current wind speed in m/s (hover to see current wind gust speed)